Location: Wildlife_Club
(35.6000°N, 81.4330°W)
Time: 07:06:24
(UTC-04:00)

Amateur Radio Satellites - All Passes

Search period start: 18 October 2017 06:36
Search period end: 19 October 2017 06:36
Location: Wildlife_Club, 35.6000°N, 81.4330°W

Satellite Date Start Highest point End Downlink Frequencies (MHz)
Time Altitude Azimuth
LilacSat-2 18 Oct 06:37:19 06:39:46 17° 94° (E) 06:42:13 437.200
XW-2F 18 Oct 06:38:15 06:40:19 14° 94° (E) 06:42:23 145.980 - 146.000
CUTE-I 18 Oct 06:38:36 06:42:02 17° 93° (E) 06:45:26 437.470
DOVE 4 18 Oct 06:40:22 06:45:22 87° 282° (WNW) 06:50:34 437.250
KAITUO 1B 18 Oct 06:41:45 06:43:09 12° 93° (E) 06:44:31 145.475/437.950
STRAND 1 18 Oct 06:43:15 06:45:03 12° 62° (ENE) 06:46:52 437.568
XW-2D 18 Oct 06:47:43 06:50:38 21° 96° (E) 06:53:32 145.860 - 145.880
O/OREOS (USA 219) 18 Oct 06:53:25 06:56:14 16° 59° (ENE) 06:59:00 437.305
NUDT-PHONESAT 18 Oct 06:59:18 07:01:59 19° 95° (E) 07:04:41 437.300
XW-2B 18 Oct 07:00:43 07:04:03 30° 97° (E) 07:07:22 145.730 - 145.750
KKS-1 18 Oct 07:02:07 07:04:31 14° 267° (W) 07:06:57 437.445
AO-7 18 Oct 07:09:21 07:14:30 18° 306° (NW) 07:19:39 .
RS-15 18 Oct 07:22:38 07:28:42 15° 8° (N) 07:34:38 29.354- 29.394
XW-2C 18 Oct 07:23:29 07:27:12 66° 100° (E) 07:30:54 145.795 - 145.815
JUGNU 18 Oct 07:28:02 07:29:55 12° 168° (SSE) 07:31:49 437.505
STARS 18 Oct 07:42:53 07:44:51 13° 267° (W) 07:46:48 437.465
CUBEBUG 2 18 Oct 07:48:14 07:50:39 14° 91° (E) 07:53:03 437.445
HO-68 18 Oct 07:52:30 07:59:00 35° 98° (E) 08:05:26 435.675
LilacSat-2 18 Oct 08:10:52 08:14:01 26° 288° (WNW) 08:17:09 437.200
XW-2F 18 Oct 08:11:13 08:14:27 29° 288° (WNW) 08:17:41 145.980 - 146.000
KAITUO 1B 18 Oct 08:13:52 08:17:13 34° 287° (WNW) 08:20:34 145.475/437.950
SO-50 18 Oct 08:14:39 08:19:06 75° 299° (WNW) 08:23:36 436.795
FO-29 18 Oct 08:15:39 08:18:11 14° 61° (ENE) 08:20:47 435.910
CUTE-I 18 Oct 08:17:07 08:22:19 52° 287° (WNW) 08:27:30 437.470
STRAND 1 18 Oct 08:18:25 08:23:32 75° 258° (WSW) 08:28:41 437.568
XW-2D 18 Oct 08:21:54 08:24:39 20° 289° (WNW) 08:27:23 145.860 - 145.880
PCSat 18 Oct 08:24:06 08:27:58 20° 106° (ESE) 08:31:50 145.827
UWE-3 18 Oct 08:30:50 08:34:26 23° 95° (E) 08:37:56 435.000/436.395/437.385
O/OREOS (USA 219) 18 Oct 08:31:28 08:35:52 46° 255° (WSW) 08:40:14 437.305
NUDT-PHONESAT 18 Oct 08:32:58 08:35:44 20° 289° (WNW) 08:38:29 437.300
XW-2B 18 Oct 08:35:52 08:37:56 14° 291° (WNW) 08:39:59 145.730 - 145.750
CUTE 1.7 + AOD 2 18 Oct 08:49:17 08:53:25 60° 284° (WNW) 08:57:32 437.475
Oscar 11 18 Oct 08:56:58 08:59:00 13° 92° (E) 09:01:03 .
SEEDS 18 Oct 09:01:26 09:05:35 73° 284° (WNW) 09:09:43 437.485
XW-2A 18 Oct 09:12:34 09:15:54 82° 284° (WNW) 09:19:12 145.665 - 145.685
JUGNU 18 Oct 09:14:37 09:18:08 16° 177° (S) 09:21:39 437.505
CUBEBUG 2 18 Oct 09:23:03 09:27:31 47° 286° (WNW) 09:31:50 437.445
AO-73 18 Oct 09:29:24 09:33:38 49° 99° (E) 09:37:45 145.935
AAUSAT CUBESAT 2 18 Oct 09:33:10 09:37:17 73° 283° (WNW) 09:41:23 437.432
RS-15 18 Oct 09:36:06 09:46:40 34° 42° (NE) 09:56:41 29.354- 29.394
HO-68 18 Oct 09:40:05 09:46:39 40° 294° (WNW) 09:53:12 435.675
ZACube-1 18 Oct 09:49:46 09:54:10 80° 283° (WNW) 09:58:26 437.345
DELFI C3 18 Oct 09:52:46 09:53:12 10° 92° (E) 09:53:37 145.870
UNISAT 6 18 Oct 09:57:09 10:01:17 34° 71° (ENE) 10:05:30 437.425
FO-29 18 Oct 09:57:32 10:02:38 62° 259° (W) 10:07:59 435.910
PCSat 18 Oct 10:05:45 10:10:57 47° 301° (WNW) 10:16:11 145.827
YUBILEINY 18 Oct 10:06:38 10:15:00 56° 90° (E) 10:23:25 435.215
UWE-3 18 Oct 10:07:01 10:10:48 27° 290° (WNW) 10:14:29 435.000/436.395/437.385
TIGRISAT 18 Oct 10:12:23 10:16:45 45° 73° (ENE) 10:21:14 435.000
PRISM 18 Oct 10:14:01 10:16:59 20° 69° (ENE) 10:19:58 437.425
Oscar 11 18 Oct 10:31:14 10:35:19 43° 287° (WNW) 10:39:22 .
nSIGHT-1 18 Oct 10:39:12 10:42:04 31° 132° (SE) 10:44:57 .
AIST 2D 18 Oct 10:57:23 10:58:38 12° 68° (ENE) 10:59:52 435.315
JUGNU 18 Oct 11:03:16 11:06:22 15° 188° (S) 11:09:27 437.505
ISS 18 Oct 11:05:25 11:08:36 56° 135° (SE) 11:11:48 437.550
AO-73 18 Oct 11:07:31 11:09:21 13° 295° (WNW) 11:11:10 145.935
EO-88 18 Oct 11:10:55 11:14:29 54° 100° (E) 11:18:01 145.990 - 145.960
Max Valier Satellite 18 Oct 11:14:59 11:18:40 87° 289° (WNW) 11:22:19 145.860
NO-84 18 Oct 11:20:45 11:23:32 19° 34° (NE) 11:26:08 435.350 FM
DELFI C3 18 Oct 11:24:20 11:28:09 46° 285° (WNW) 11:31:56 145.870
EO-79 18 Oct 11:26:53 11:28:35 12° 66° (ENE) 11:30:17 145.935-145.965
POLYITAN 1 18 Oct 11:30:26 11:32:34 14° 66° (ENE) 11:34:42 437.675
SRMSAT 18 Oct 11:33:08 11:36:34 16° 174° (S) 11:40:01 437.500
UNISAT 6 18 Oct 11:34:38 11:38:01 20° 266° (W) 11:41:27 437.425
RS-15 18 Oct 11:48:24 12:00:08 72° 246° (WSW) 12:11:13 29.354- 29.394
PRISM 18 Oct 11:48:42 11:52:04 26° 263° (W) 11:55:29 437.425
QB50P2 18 Oct 11:49:00 11:52:28 25° 70° (ENE) 11:55:57 145.880/145.840
TIGRISAT 18 Oct 11:51:01 11:53:38 15° 268° (W) 11:56:17 435.000
NANOSAT C BR1 18 Oct 11:54:55 11:58:15 23° 70° (ENE) 12:01:36 145.865
YUBILEINY 18 Oct 12:05:01 12:12:09 28° 288° (WNW) 12:19:23 435.215
DUCHIFAT 1 18 Oct 12:06:46 12:10:20 27° 71° (ENE) 12:13:56 145.980
LO-87 18 Oct 12:08:32 12:11:49 32° 97° (E) 12:15:05 145.935 - 145.965
ESTCUBE 1 18 Oct 12:10:33 12:14:12 24° 96° (E) 12:17:49 437.505/2401.250
nSIGHT-1 18 Oct 12:15:48 12:18:22 22° 328° (NNW) 12:20:57 .
BEESAT 3 18 Oct 12:21:29 12:24:07 17° 110° (ESE) 12:26:46 437.485
BUGSAT 1 18 Oct 12:26:51 12:27:51 11° 65° (ENE) 12:28:51 437.445
AIST 2D 18 Oct 12:28:15 12:31:27 33° 262° (W) 12:34:40 435.315
ISS 18 Oct 12:43:09 12:45:18 16° 331° (NNW) 12:47:28 437.550
NO-84 18 Oct 12:57:43 13:01:03 38° 233° (SW) 13:04:07 435.350 FM
EO-79 18 Oct 12:59:43 13:03:51 50° 260° (W) 13:08:01 145.935-145.965
POLYITAN 1 18 Oct 13:03:49 13:07:54 45° 261° (W) 13:12:02 437.675
SPROUT 18 Oct 13:19:53 13:23:48 34° 98° (E) 13:27:41 437.525
SRMSAT 18 Oct 13:21:23 13:24:59 16° 184° (S) 13:28:36 437.500
QB50P2 18 Oct 13:24:43 13:28:08 23° 264° (W) 13:31:35 145.880/145.840
NANOSAT C BR1 18 Oct 13:30:18 13:33:48 25° 264° (W) 13:37:20 145.865
BEESAT 2 18 Oct 13:35:22 13:38:58 33° 113° (ESE) 13:42:37 435.950
M-CUBED/EXP-1 PRIME 18 Oct 13:36:19 13:39:31 35° 70° (ENE) 13:42:36 437.505
AO-85 18 Oct 13:38:20 13:41:23 22° 112° (ESE) 13:44:28 145.980
DUCHIFAT 1 18 Oct 13:42:44 13:45:56 21° 265° (W) 13:49:10 145.980
LO-87 18 Oct 13:43:11 13:44:53 13° 292° (WNW) 13:46:35 145.935 - 145.965
VELOX 1 18 Oct 13:46:28 13:50:44 46° 100° (E) 13:55:00 145.980
ESTCUBE 1 18 Oct 13:47:11 13:50:53 26° 290° (WNW) 13:54:35 437.505/2401.250
Oscar 19 18 Oct 13:55:45 14:00:48 59° 74° (ENE) 14:05:53 437.125/150
BEESAT 3 18 Oct 13:57:44 14:01:22 33° 305° (NW) 14:05:03 437.485
BUGSAT 1 18 Oct 13:58:34 14:02:39 56° 260° (W) 14:06:48 437.445
RS-15 18 Oct 14:06:08 14:10:11 12° 265° (W) 14:14:12 29.354- 29.394
Gurwin Techsat 1B 18 Oct 14:08:41 14:13:50 53° 73° (ENE) 14:19:00 435.225
AO-7 18 Oct 14:21:00 14:26:26 20° 55° (NE) 14:31:51 .
SPROUT 18 Oct 14:56:31 14:59:23 18° 292° (WNW) 15:02:15 437.525
50 SAT 18 Oct 14:57:14 15:00:33 75° 283° (WNW) 15:03:50 437.505
DX 1 18 Oct 14:59:59 15:04:22 75° 103° (ESE) 15:08:43 434.975-435.025
SRMSAT 18 Oct 15:11:58 15:13:23 11° 194° (SSW) 15:14:47 437.500
BEESAT 2 18 Oct 15:13:53 15:16:46 19° 309° (NW) 15:19:42 435.950
AO-85 18 Oct 15:18:28 15:21:38 23° 308° (NW) 15:24:52 145.980
VELOX 1 18 Oct 15:24:23 15:26:45 14° 294° (WNW) 15:29:07 145.980
UKube-1 18 Oct 15:28:50 15:33:11 81° 283° (WNW) 15:37:29 .
MOZHAYETS 4 18 Oct 15:35:45 15:38:13 14° 93° (E) 15:40:39
Oscar 19 18 Oct 15:37:51 15:40:26 14° 268° (W) 15:43:03 437.125/150
ITUPSAT 1 18 Oct 15:43:31 15:46:21 15° 93° (E) 15:49:09 437.325
Gurwin Techsat 1B 18 Oct 15:50:51 15:54:02 16° 267° (W) 15:57:15 435.225
BEESAT 18 Oct 15:59:41 16:03:33 24° 96° (E) 16:07:23 436.000
ITAMSAT 1 18 Oct 16:02:37 16:07:41 59° 73° (ENE) 16:12:47 435.822/435.867
AO-7 18 Oct 16:09:50 16:18:09 86° 252° (WSW) 16:26:29 .
SO-50 18 Oct 16:48:32 16:52:56 42° 56° (NE) 16:57:21 436.795
nSIGHT-1 18 Oct 17:09:07 17:11:00 15° 28° (NNE) 17:12:53 .
MOZHAYETS 4 18 Oct 17:11:11 17:15:33 45° 287° (WNW) 17:19:53
PCSat 18 Oct 17:16:15 17:17:22 11° 44° (NE) 17:18:28 145.827
CUBESAT XI-V 18 Oct 17:16:31 17:20:49 39° 98° (E) 17:25:06 437.345
ITUPSAT 1 18 Oct 17:19:46 17:24:21 46° 287° (WNW) 17:28:54 437.325
KKS-1 18 Oct 17:20:51 17:21:01 10° 92° (E) 17:21:10 437.445
ISS 18 Oct 17:35:59 17:38:33 21° 32° (NNE) 17:41:07 437.550
BEESAT 18 Oct 17:37:08 17:41:16 30° 290° (WNW) 17:45:23 436.000
XW-2B 18 Oct 17:41:23 17:42:12 11° 67° (ENE) 17:43:01 145.730 - 145.750
DOVE 4 18 Oct 17:43:17 17:47:22 63° 76° (ENE) 17:51:35 437.250
ITAMSAT 1 18 Oct 17:44:49 17:47:28 14° 268° (W) 17:50:07 435.822/435.867
CUTE-I 18 Oct 17:57:29 18:01:26 22° 66° (ENE) 18:05:25 437.470
STARS 18 Oct 17:58:58 17:59:55 11° 92° (E) 18:00:52 437.465
XW-2C 18 Oct 18:02:16 18:05:08 20° 71° (ENE) 18:07:58 145.795 - 145.815
AO-7 18 Oct 18:07:51 18:11:49 14° 268° (W) 18:15:49 .
HO-68 18 Oct 18:19:35 18:24:27 20° 60° (ENE) 18:29:21 435.675
SO-50 18 Oct 18:29:52 18:33:04 18° 250° (WSW) 18:36:16 436.795
nSIGHT-1 18 Oct 18:44:23 18:47:34 66° 224° (SW) 18:50:45 .
XW-2F 18 Oct 18:48:03 18:51:50 78° 75° (ENE) 18:55:36 145.980 - 146.000
LilacSat-2 18 Oct 18:48:41 18:52:31 87° 258° (WSW) 18:56:22 437.200
KAITUO 1B 18 Oct 18:50:00 18:53:42 62° 77° (ENE) 18:57:24 145.475/437.950
KKS-1 18 Oct 18:53:27 18:57:53 61° 286° (WNW) 19:02:18 437.445
CUBESAT XI-V 18 Oct 18:54:49 18:57:51 18° 293° (WNW) 19:00:52 437.345
PCSat 18 Oct 18:56:16 19:01:42 73° 63° (ENE) 19:07:05 145.827
XW-2D 18 Oct 18:58:44 19:02:32 66° 260° (W) 19:06:19 145.860 - 145.880
NUDT-PHONESAT 18 Oct 19:07:41 19:11:25 77° 259° (W) 19:15:09 437.300
ISS 18 Oct 19:12:03 19:15:07 37° 227° (SW) 19:18:09 437.550
XW-2B 18 Oct 19:12:17 19:15:56 44° 261° (W) 19:19:35 145.730 - 145.750
UWE-3 18 Oct 19:25:31 19:28:07 15° 66° (ENE) 19:30:42 435.000/436.395/437.385
STARS 18 Oct 19:32:12 19:36:34 57° 286° (WNW) 19:40:54 437.465
XW-2C 18 Oct 19:36:09 19:39:09 22° 264° (W) 19:42:09 145.795 - 145.815
CUTE-I 18 Oct 19:36:10 19:41:09 42° 261° (W) 19:46:11 437.470
CUTE 1.7 + AOD 2 18 Oct 19:38:23 19:42:34 62° 76° (ENE) 19:46:44 437.475
XW-2A 18 Oct 19:41:15 19:43:41 18° 71° (ENE) 19:46:07 145.665 - 145.685
SEEDS 18 Oct 19:49:42 19:53:43 49° 75° (ENE) 19:57:45 437.485
HO-68 18 Oct 20:04:18 20:11:25 72° 256° (WSW) 20:18:37 435.675
CUBEBUG 2 18 Oct 20:17:02 20:21:39 84° 257° (WSW) 20:26:24 437.445
AAUSAT CUBESAT 2 18 Oct 20:19:54 20:23:50 46° 74° (ENE) 20:27:46 437.432
YUBILEINY 18 Oct 20:21:18 20:27:58 23° 69° (ENE) 20:34:36 435.215
AO-73 18 Oct 20:21:37 20:25:29 28° 71° (ENE) 20:29:22 145.935
STRAND 1 18 Oct 20:31:59 20:36:58 47° 100° (E) 20:41:54 437.568
ZACube-1 18 Oct 20:41:44 20:46:10 54° 75° (ENE) 20:50:39 437.345
PCSat 18 Oct 20:42:20 20:44:22 12° 258° (WSW) 20:46:24 145.827
UWE-3 18 Oct 20:59:37 21:04:04 49° 261° (W) 21:08:37 435.000/436.395/437.385
O/OREOS (USA 219) 18 Oct 21:01:53 21:05:46 28° 103° (ESE) 21:09:40 437.305
FO-29 18 Oct 21:08:31 21:13:58 23° 95° (E) 21:19:44 435.910
XW-2A 18 Oct 21:13:45 21:16:15 19° 264° (W) 21:18:44 145.665 - 145.685
Oscar 11 18 Oct 21:22:17 21:26:37 87° 257° (WSW) 21:30:59 .
SEEDS 18 Oct 21:28:29 21:29:38 11° 268° (W) 21:30:45 437.485
EO-88 18 Oct 21:46:40 21:48:49 15° 69° (ENE) 21:50:59 145.990 - 145.960
Max Valier Satellite 18 Oct 21:50:58 21:54:02 25° 72° (ENE) 21:57:07 145.860
AO-73 18 Oct 21:57:58 22:01:37 24° 265° (W) 22:05:19 145.935
AAUSAT CUBESAT 2 18 Oct 21:58:14 21:59:29 11° 268° (W) 22:00:44 437.432
DELFI C3 18 Oct 22:06:04 22:09:54 58° 75° (ENE) 22:13:44 145.870
TIGRISAT 18 Oct 22:09:01 22:10:47 12° 91° (E) 22:12:31 435.000
AO-85 18 Oct 22:11:56 22:14:09 13° 47° (NE) 22:16:25 145.980
STRAND 1 18 Oct 22:12:16 22:15:44 18° 295° (WNW) 22:19:11 437.568
BEESAT 3 18 Oct 22:16:39 22:20:30 49° 58° (ENE) 22:24:15 437.485
YUBILEINY 18 Oct 22:16:42 22:25:25 68° 267° (W) 22:34:07 435.215
ZACube-1 18 Oct 22:20:51 22:22:42 12° 269° (W) 22:24:35 437.345
O/OREOS (USA 219) 18 Oct 22:41:27 22:45:07 24° 298° (WNW) 22:48:49 437.305
FO-29 18 Oct 22:52:22 22:59:08 61° 287° (WNW) 23:06:37 435.910
ESTCUBE 1 18 Oct 23:07:57 23:10:45 17° 67° (ENE) 23:13:33 437.505/2401.250
EO-88 18 Oct 23:19:03 23:22:12 27° 263° (W) 23:25:22 145.990 - 145.960
Max Valier Satellite 18 Oct 23:25:17 23:27:48 17° 265° (W) 23:30:20 145.860
UNISAT 6 18 Oct 23:27:50 23:32:27 74° 283° (WNW) 23:36:55 437.425
PRISM 18 Oct 23:31:50 23:35:50 48° 100° (E) 23:39:50 437.425
BEESAT 2 18 Oct 23:32:39 23:36:41 77° 242° (WSW) 23:40:39 435.950
TIGRISAT 18 Oct 23:43:16 23:47:46 53° 286° (WNW) 23:52:09 435.000
AO-85 18 Oct 23:50:19 23:54:58 76° 243° (WSW) 23:59:58 145.980
AIST 2D 18 Oct 23:56:15 23:58:47 19° 95° (E) 00:01:19 435.315
BEESAT 3 18 Oct 23:56:39 23:57:31 11° 253° (WSW) 23:58:24 437.485
RS-15 18 Oct 23:57:30 00:06:28 25° 101° (E) 00:15:28 29.354- 29.394
SPROUT 19 Oct 00:10:53 00:13:49 18° 68° (ENE) 00:16:46 437.525
LO-87 19 Oct 00:14:07 00:17:35 48° 261° (W) 00:21:05 145.935 - 145.965
VELOX 1 19 Oct 00:40:56 00:44:40 28° 70° (ENE) 00:48:23 145.980
ESTCUBE 1 19 Oct 00:42:58 00:47:11 40° 261° (W) 00:51:26 437.505/2401.250
EO-79 19 Oct 00:47:22 00:51:09 30° 97° (E) 00:54:54 145.935-145.965
POLYITAN 1 19 Oct 00:51:29 00:55:23 34° 98° (E) 00:59:13 437.675
PRISM 19 Oct 01:09:06 01:10:39 12° 294° (WNW) 01:12:11 437.425
QB50P2 19 Oct 01:11:21 01:15:37 69° 101° (ESE) 01:19:49 145.880/145.840
NANOSAT C BR1 19 Oct 01:16:28 01:20:41 62° 101° (E) 01:24:51 145.865
50 SAT 19 Oct 01:23:37 01:25:55 18° 71° (ENE) 01:28:13 437.505
DUCHIFAT 1 19 Oct 01:28:13 01:32:28 75° 103° (ESE) 01:36:39 145.980
AIST 2D 19 Oct 01:29:22 01:31:50 19° 289° (WNW) 01:34:17 435.315
BUGSAT 1 19 Oct 01:43:33 01:47:04 25° 96° (E) 01:50:30 437.445
SPROUT 19 Oct 01:45:36 01:49:26 32° 263° (W) 01:53:17 437.525
DX 1 19 Oct 01:52:25 01:56:29 42° 72° (ENE) 02:00:34 434.975-435.025
RS-15 19 Oct 02:05:15 02:17:32 82° 299° (WNW) 02:29:57 29.354- 29.394
Oscar 19 19 Oct 02:10:50 02:15:04 26° 96° (E) 02:19:16 437.125/150
VELOX 1 19 Oct 02:17:42 02:21:03 21° 265° (W) 02:24:25 145.980
UKube-1 19 Oct 02:19:58 02:24:09 55° 74° (ENE) 02:28:22 .
EO-79 19 Oct 02:23:38 02:26:39 19° 292° (WNW) 02:29:39 145.935-145.965
POLYITAN 1 19 Oct 02:28:04 02:30:51 17° 292° (WNW) 02:33:37 437.675
Gurwin Techsat 1B 19 Oct 02:28:21 02:32:48 27° 96° (E) 02:37:14 435.225
MOZHAYETS 4 19 Oct 02:36:30 02:37:29 11° 64° (ENE) 02:38:28
ITUPSAT 1 19 Oct 02:48:02 02:50:30 14° 64° (ENE) 02:52:59 437.325
M-CUBED/EXP-1 PRIME 19 Oct 02:50:16 02:53:43 45° 105° (ESE) 02:57:25 437.505
50 SAT 19 Oct 02:55:55 02:58:06 17° 264° (W) 03:00:19 437.505
BEESAT 19 Oct 03:03:29 03:07:02 21° 67° (ENE) 03:10:34 436.000
BUGSAT 1 19 Oct 03:18:56 03:22:15 23° 291° (WNW) 03:25:31 437.445
DX 1 19 Oct 03:30:38 03:32:49 14° 267° (W) 03:35:02 434.975-435.025
Oscar 19 19 Oct 03:49:50 03:54:20 32° 290° (WNW) 03:58:49 437.125/150
UKube-1 19 Oct 03:59:55 04:00:27 10° 268° (W) 04:01:00 .
Gurwin Techsat 1B 19 Oct 04:08:00 04:12:42 33° 291° (WNW) 04:17:24 435.225
NO-84 19 Oct 04:08:55 04:13:14 84° 130° (SE) 04:17:31 435.350 FM
MOZHAYETS 4 19 Oct 04:09:23 04:14:00 69° 259° (W) 04:18:38
AO-7 19 Oct 04:15:10 04:22:47 38° 100° (E) 04:30:21 .
CUBESAT XI-V 19 Oct 04:16:59 04:20:55 28° 70° (ENE) 04:24:49 437.345
ITAMSAT 1 19 Oct 04:18:56 04:23:17 26° 96° (E) 04:27:37 435.822/435.867
RS-15 19 Oct 04:22:20 04:32:10 27° 324° (NW) 04:41:59 29.354- 29.394
ITUPSAT 1 19 Oct 04:23:06 04:27:48 56° 259° (W) 04:32:33 437.325
M-CUBED/EXP-1 PRIME 19 Oct 04:27:11 04:27:50 10° 297° (WNW) 04:28:28 437.505
BEESAT 19 Oct 04:40:09 04:44:32 35° 262° (W) 04:48:55 436.000
DOVE 4 19 Oct 05:44:27 05:48:34 25° 96° (E) 05:52:48 437.250
KKS-1 19 Oct 05:48:04 05:52:29 83° 75° (ENE) 05:56:56 437.445
NO-84 19 Oct 05:48:20 05:51:07 16° 328° (NNW) 05:53:50 435.350 FM
CUBESAT XI-V 19 Oct 05:54:26 05:58:11 24° 264° (W) 06:01:57 437.345
ITAMSAT 1 19 Oct 05:58:04 06:02:43 33° 291° (WNW) 06:07:20 435.822/435.867
AO-7 19 Oct 06:07:50 06:15:29 43° 296° (WNW) 06:23:09 .
STARS 19 Oct 06:25:16 06:29:38 85° 77° (ENE) 06:34:04 437.465
LilacSat-2 19 Oct 06:26:41 06:28:05 12° 93° (E) 06:29:28 437.200
